Powrót do katalogu

USA 414

AktywnyMilitariaVLEO
NORAD 61035·PAYLOAD·🇺🇸 United States

Wystrzelony Sep 6, 2024 z Vandenberg Space Force Base

Loading…

Następne Przeloty (najbliższe 24 godziny)

TLE

NieaktualneSource: Mike McCants

Epoka: Aug 23, 2026, 00:24 UTC

1 61035U 24160Q   26235.01705749 0.00000000  00000-0  00000-0 0    02
2 61035  70.0170 204.0389 0002000  79.0860 280.9139 14.96713200    05

Śledź USA 414 w czasie rzeczywistym z AllMySat

Download on the App Store